Pardubice, Czech Republic

3:03 PM CEST on September 21, 2017 (GMT +0200)
Pardubice

Weather History for LKPD - February, 2013

Change the Weather History Date:

Monday, February 18, 2013

  Actual Average Record
Temperature  
Mean Temperature 32 °F -  
Max Temperature 35 °F - - ()
Min Temperature 30 °F - - ()
Degree Days  
Heating Degree Days 32    
Moisture  
Dew Point 29 °F    
Average Humidity 86    
Maximum Humidity 93    
Minimum Humidity 75    
Precipitation  
Precipitation 0.00 in - - ()
Sea Level Pressure  
Sea Level Pressure 30.13 in    
Wind  
Wind Speed 1 mph ()    
Max Wind Speed 6 mph    
Max Gust Speed -    
Visibility 2.9 miles    
Events Snow    
T = Trace of Precipitation, MM = Missing Value Source: Averaged Metar Reports

Daily Weather History Graph

Daily Weather History Graph

Search for Another Location

Airport or City:

Trip Planner

Search our weather history database for the weather conditions in past years. The results will help you decide how hot, cold, wet, or windy it might be!

Date:

Astronomy

Feb. 18, 2013 Rise Set
Actual Time 7:02 AM CET 5:20 PM CET
Civil Twilight 6:28 AM CET 5:53 PM CET
Nautical Twilight 5:51 AM CET 6:31 PM CET
Astronomical Twilight 5:13 AM CET 7:09 PM CET
Moon 10:37 AM CET (2/18) 1:41 AM CET (2/18)
Length of Visible Light 11h 24m
Length of Day
10h 18m
First Quarter, 56% of the Moon is Illuminated
Feb 18
First Quarter
Feb 25
Full
Mar 4
Last Quarter
Mar 11
New
Mar 19
First Quarter

Hourly Weather History & Observations

Time (CET) Temp. Windchill Dew Point Humidity Pressure Visibility Wind Dir Wind Speed Gust Speed Precip Events Conditions
12:00 AM 32.0 °F - 30.2 °F 93% 30.18 in 1.9 mi Calm Calm - N/A   Overcast
1:00 AM 32.0 °F - 30.2 °F 93% 30.18 in 1.9 mi Calm Calm - N/A   Overcast
2:00 AM 32.0 °F - 30.2 °F 93% 30.18 in 1.9 mi Calm Calm - N/A   Overcast
3:00 AM 32.0 °F - 30.2 °F 93% 30.15 in 1.9 mi Calm Calm - N/A   Overcast
4:00 AM 32.0 °F - 28.4 °F 87% 30.15 in 2.5 mi WNW 1.2 mph - N/A   Overcast
5:00 AM 32.0 °F - 28.4 °F 87% 30.15 in 2.5 mi Calm Calm - N/A   Overcast
6:00 AM 30.2 °F - 28.4 °F 93% 30.15 in 2.5 mi West 2.3 mph - N/A   Overcast
7:00 AM 30.2 °F - 28.4 °F 93% 30.15 in 2.5 mi Calm Calm - N/A   Overcast
7:27 AM 30.2 °F - 28.4 °F 93% 30.15 in 1.9 mi Calm Calm - N/A   Overcast
8:00 AM 32.0 °F - 28.4 °F 87% 30.15 in 2.2 mi Calm Calm - N/A   Overcast
9:00 AM 32.0 °F - 28.4 °F 87% 30.15 in 2.2 mi West 1.2 mph - N/A Snow Light Snow
10:00 AM 32.0 °F - 28.4 °F 87% 30.15 in 2.2 mi Variable 2.3 mph - N/A Snow Light Snow
11:00 AM 32.0 °F 28.7 °F 28.4 °F 87% 30.15 in 2.5 mi West 3.5 mph - N/A Snow Light Snow
12:00 PM 33.8 °F 29.6 °F 28.4 °F 81% 30.15 in 3.1 mi West 4.6 mph - N/A   Overcast
1:00 PM 35.6 °F 32.8 °F 28.4 °F 75% 30.15 in 3.7 mi WNW 3.5 mph - N/A   Overcast
2:00 PM 35.6 °F 31.7 °F 28.4 °F 75% 30.12 in 3.7 mi West 4.6 mph - N/A   Overcast
3:00 PM 33.8 °F 28.6 °F 28.4 °F 81% 30.12 in 3.7 mi West 5.8 mph - N/A   Overcast
4:00 PM 33.8 °F 29.6 °F 28.4 °F 81% 30.09 in 3.7 mi West 4.6 mph - N/A   Unknown
5:00 PM 33.8 °F - 28.4 °F 81% 30.09 in 3.7 mi West 2.3 mph - N/A   Unknown
6:00 PM 33.8 °F - 28.4 °F 81% 30.09 in 3.1 mi WSW 2.3 mph - N/A   Overcast
7:00 PM 33.8 °F - 28.4 °F 81% 30.09 in 3.7 mi West 2.3 mph - N/A   Overcast
8:00 PM 33.8 °F 30.8 °F 26.6 °F 75% 30.09 in 3.7 mi West 3.5 mph - N/A   Overcast
9:00 PM 32.0 °F 28.7 °F 28.4 °F 87% 30.09 in 3.7 mi WSW 3.5 mph - N/A   Overcast
10:00 PM 32.0 °F 28.7 °F 28.4 °F 87% 30.09 in 3.7 mi West 3.5 mph - N/A   Overcast
11:00 PM 32.0 °F - 28.4 °F 87% 30.06 in 3.7 mi WSW 2.3 mph - N/A   Overcast